Weather History for Girona, Spain

Change the Weather History Date:

Saturday, January 19, 2013

  Actual Average Record
Temperature  
Mean Temperature 52 °F -  
Max Temperature 61 °F 56 °F 73 °F (2007)
Min Temperature 42 °F 35 °F 28 °F (2002)
Degree Days  
Heating Degree Days 14    
Growing Degree Days 2 (Base 50)    
Moisture  
Dew Point 48 °F    
Average Humidity 92    
Maximum Humidity 100    
Minimum Humidity 55    
Precipitation  
Precipitation 0.12 in 0.07 in - ()
Sea Level Pressure  
Sea Level Pressure 29.14 in    
Wind  
Wind Speed 6 mph ()    
Max Wind Speed 21 mph    
Max Gust Speed 32 mph    
Visibility 5.3 miles    
Events Rain    
Averages and records for this station are not official NWS values.
T = Trace of Precipitation, MM = Missing Value Source: Averaged Metar Reports

Daily Weather History Graph

Daily Weather History Graph

Search for Another Location

Airport:

Trip Planner

Search our weather history database for the weather conditions in past years. The results will help you decide how hot, cold, wet, or windy it might be!

Date:

Astronomy

Jan. 19, 2013 Rise Set
Actual Time 8:12 AM CET 5:47 PM CET
Civil Twilight 7:41 AM CET 6:18 PM CET
Nautical Twilight 7:07 AM CET 6:52 PM CET
Astronomical Twilight 6:34 AM CET 7:25 PM CET
Moon 12:06 PM CET (1/19) 1:29 AM CET (1/19)
Length of Visible Light 10h 36m
Length of Day
9h 35m
First Quarter, 54% of the Moon is Illuminated
Jan 19
First Quarter
Jan 27
Full
Feb 3
Last Quarter
Feb 10
New
Feb 17
First Quarter

Hourly Weather History & Observations

Time (CET) Temp. Windchill Dew Point Humidity Pressure Visibility Wind Dir Wind Speed Gust Speed Precip Events Conditions
12:00 AM 44.6 °F - 44.6 °F 100% 29.39 in 6.2 mi Variable 1.2 mph - N/A   Mostly Cloudy
12:30 AM 44.6 °F - 44.6 °F 100% 29.39 in 6.2 mi Variable 1.2 mph - N/A   Mostly Cloudy
1:00 AM 48 °F - 45 °F 87% 29.35 in 6 mi North 1.2 mph - -   Overcast
1:00 AM 46.4 °F - 46.4 °F 100% 29.36 in 6.2 mi Variable 1.2 mph - N/A   Mostly Cloudy
1:30 AM 44.6 °F - 44.6 °F 100% 29.36 in 6.2 mi Calm Calm - N/A   Mostly Cloudy
2:00 AM 44.6 °F - 44.6 °F 100% 29.33 in 6.2 mi Variable 1.2 mph - N/A   Mostly Cloudy
2:30 AM 46.4 °F - 46.4 °F 100% 29.33 in 6.2 mi Variable 1.2 mph - N/A   Mostly Cloudy
3:00 AM 46.4 °F - 46.4 °F 100% 29.33 in 6.2 mi Variable 2.3 mph - N/A   Mostly Cloudy
3:30 AM 46.4 °F - 46.4 °F 100% 29.33 in 6.2 mi Variable 1.2 mph - N/A   Mostly Cloudy
4:00 AM 44.6 °F 40.2 °F 42.8 °F 93% 29.33 in 6.2 mi NNE 8.1 mph - N/A   Mostly Cloudy
4:30 AM 44.6 °F 39.7 °F 42.8 °F 93% 29.30 in 6.2 mi NNE 9.2 mph - N/A   Scattered Clouds
5:00 AM 42.8 °F 37.5 °F 41.0 °F 93% 29.30 in 6.2 mi North 9.2 mph - N/A   Scattered Clouds
5:30 AM 42.8 °F 38.0 °F 41.0 °F 93% 29.27 in 6.2 mi North 8.1 mph - N/A   Scattered Clouds
6:00 AM 42.8 °F 38.0 °F 41.0 °F 93% 29.27 in 6.2 mi North 8.1 mph - N/A   Scattered Clouds
6:30 AM 42.8 °F 40.1 °F 41.0 °F 93% 29.27 in 6.2 mi NNE 4.6 mph - N/A   Partly Cloudy
7:00 AM 45 °F - 41 °F 82% 29.26 in 6 mi North 4.6 mph - -   Scattered Clouds
7:30 AM 42.8 °F - 41.0 °F 93% 29.24 in 6.2 mi Calm Calm - N/A   Scattered Clouds
8:00 AM 42.8 °F - 41.0 °F 93% 29.24 in 2.5 mi Calm Calm - N/A   Mostly Cloudy
8:30 AM 42.8 °F - 42.8 °F 100% 29.21 in 2.5 mi Calm Calm - N/A   Mostly Cloudy
9:00 AM 44.6 °F - 44.6 °F 100% 29.21 in 2.5 mi Variable 2.3 mph - N/A   Mostly Cloudy
9:30 AM 44.6 °F - 44.6 °F 100% 29.21 in 2.5 mi Variable 2.3 mph - N/A   Mostly Cloudy
10:00 AM 44.6 °F - 44.6 °F 100% 29.18 in 1.9 mi Calm Calm - N/A   Mostly Cloudy
10:30 AM 46.4 °F - 46.4 °F 100% 29.18 in 1.9 mi Variable 1.2 mph - N/A   Mostly Cloudy
11:00 AM 48.2 °F - 48.2 °F 100% 29.18 in 1.9 mi Variable 1.2 mph - N/A   Mostly Cloudy
11:30 AM 50.0 °F - 48.2 °F 94% 29.15 in 3.1 mi Variable 2.3 mph - N/A   Scattered Clouds
12:00 PM 50.0 °F - 48.2 °F 94% 29.15 in 5.0 mi NE 4.6 mph - N/A   Scattered Clouds
12:30 PM 53.6 °F - 48.2 °F 82% 29.12 in 5.0 mi East 1.2 mph - N/A   Partly Cloudy
1:00 PM 61 °F - 49 °F 55% 29.08 in 11 mi SSW 20.7 mph - -   Scattered Clouds
1:00 PM 60.8 °F - 48.2 °F 63% 29.09 in 5.0 mi SSW 18.4 mph - N/A   Scattered Clouds
1:30 PM 59.0 °F - 48.2 °F 67% 29.06 in 5.0 mi SSW 18.4 mph - N/A   Scattered Clouds
2:00 PM 59.0 °F - 50.0 °F 72% 29.06 in 5.0 mi SSW 17.3 mph - N/A   Scattered Clouds
2:30 PM 57.2 °F - 50.0 °F 77% 29.06 in 6.2 mi SSW 13.8 mph - N/A Rain Light Rain
3:00 PM 55.4 °F - 50.0 °F 82% 29.06 in 6.2 mi SSW 11.5 mph - N/A Rain Light Rain
3:30 PM 55.4 °F - 53.6 °F 94% 29.03 in 6.2 mi SSW 11.5 mph - N/A Rain Light Rain
4:00 PM 55.4 °F - 53.6 °F 94% 29.00 in 6.2 mi SSW 11.5 mph - N/A Rain Light Rain
4:30 PM 55.4 °F - 55.4 °F 100% 29.00 in 6.2 mi South 11.5 mph - N/A Rain Light Rain
5:00 PM 55.4 °F - 55.4 °F 100% 29.00 in 5.0 mi South 13.8 mph - N/A Rain Light Rain
5:30 PM 53.6 °F - 53.6 °F 100% 28.97 in 5.6 mi South 11.5 mph - N/A   Mostly Cloudy
6:00 PM 53.6 °F - 53.6 °F 100% 28.97 in 3.1 mi South 11.5 mph - N/A   Mostly Cloudy
6:30 PM 55.4 °F - 55.4 °F 100% 28.94 in 3.7 mi South 16.1 mph - N/A Rain Light Rain
7:00 PM 56 °F - 53 °F 87% 28.94 in 5 mi South 18.4 mph - - Rain Light Rain
7:00 PM 55.4 °F - 55.4 °F 100% 28.94 in 5.0 mi South 16.1 mph - N/A Rain Light Rain
7:30 PM 53.6 °F - 53.6 °F 100% 28.94 in 3.7 mi South 15.0 mph - N/A   Mostly Cloudy
8:00 PM 53.6 °F - 51.8 °F 94% 28.94 in 5.6 mi South 20.7 mph 32.2 mph N/A   Mostly Cloudy
8:30 PM 53.6 °F - 50.0 °F 88% 28.97 in 5.6 mi SSW 20.7 mph - N/A   Mostly Cloudy
9:00 PM 51.8 °F - 48.2 °F 88% 29.00 in 5.6 mi SSW 20.7 mph - N/A   Mostly Cloudy
9:30 PM 51.8 °F - 48.2 °F 88% 29.00 in 6.2 mi SW 11.5 mph - N/A   Mostly Cloudy
10:00 PM 51.8 °F - 48.2 °F 88% 29.00 in 6.2 mi SSW 11.5 mph - N/A   Mostly Cloudy
10:30 PM 50.0 °F - 48.2 °F 94% 29.00 in 6.2 mi SSW 10.4 mph - N/A   Mostly Cloudy
11:00 PM 50.0 °F - 48.2 °F 94% 29.03 in 5.0 mi SW 8.1 mph - N/A   Mostly Cloudy
11:30 PM 48.2 °F - 46.4 °F 93% 29.03 in 5.6 mi SSW 11.5 mph - N/A   Scattered Clouds